Flag Weather past 2 weeks in Canterbury, England, United Kingdom

Now
52 °F

Fog.


Feels Like: 48 °F
Forecast: N/A
Wind: 12 mph from Southeast

Location: Manston

Current Time: Nov 27, 2014 at 9:17:22 PM

Latest Report: Nov 27, 2014 at 8:00 PM


Visibility: 3 mi

Pressure: 29.63 "Hg

Humidity: 95%

Dew point: 50 °F

Location of CanterburyLocation

Historic Weather in Canterbury — Graph

°F

Canterbury temperature yesterday

Maximum temperature yesterday: 51 °F (at 11:00 PM)
Minimum temperature yesterday: 46 °F (at 5:00 AM)
Average temperature yesterday: 48 °F

Past Weeks' High & Low Weather Summary

 TemperatureHumidityPressure
High57 °F (Nov 22, 12:00 PM)99% (Nov 22, 8:00 PM)30.34 "Hg (Nov 22, 8:00 PM)
Low37 °F (Nov 24, 8:00 AM)70% (Nov 25, 2:00 PM)29.47 "Hg (Nov 15, 4:00 PM)
Average49 °F91%29.87 "Hg
* Reported Nov 12 8:00 PM — Nov 27 8:00 PM, Canterbury, Weather by CustomWeather, © 2014

Note: Actual official high and low records may vary slightly from our data, if they occured in-between our weather recording intervals... More about our weather records

Advertising

Canterbury weather history for previous 24 hours

 ConditionsComfort  
Time TempWeatherWind HumidityBarometerVisibility
8:00 PM
Nov 27
52 °FFog.12 mph95%29.63 "Hg3 mi
7:00 PM52 °FSmoke.10 mph91%29.62 "Hg4 mi
6:00 PM52 °FSmoke.7 mph94%29.63 "Hg5 mi
5:00 PM51 °FFog.5 mph95%29.63 "Hg3 mi
4:00 PM52 °FCool.5 mph94%29.62 "Hg4 mi
3:00 PM52 °FSmoke.8 mph92%29.62 "Hg6 mi
2:00 PM52 °FSmoke.8 mph94%29.62 "Hg5 mi
1:00 PM53 °FSmoke.8 mph94%29.63 "Hg4 mi
12:00 PM52 °FCool.13 mph91%29.64 "Hg6 mi
11:00 AM52 °FSmoke.12 mph93%29.65 "Hg5 mi
10:00 AM53 °FSmoke.13 mph94%29.66 "Hg4 mi
9:00 AM52 °FFog.10 mph96%29.67 "Hg4 mi
8:00 AM51 °FFog.12 mph97%29.66 "Hg3 mi
7:00 AM51 °FFog.12 mph97%29.66 "Hg4 mi
6:00 AM50 °FFog.10 mph97%29.67 "Hg3 mi
5:00 AM49 °FFog.9 mph97%29.68 "Hg3 mi
4:00 AM50 °FFog.10 mph97%29.69 "Hg4 mi
3:00 AM52 °FFog.10 mph99%29.71 "Hg4 mi
2:00 AM52 °FFog.8 mph99%29.72 "Hg2 mi
1:00 AM52 °FCool.9 mph99%29.73 "Hg2 mi
12:00 AM51 °FDuststorm.7 mph99%29.75 "Hg1 mi
11:00 PM
Nov 26
51 °FCool.7 mph99%29.76 "Hg1 mi
10:00 PM50 °FLots of rain. Overcast.3 mph99%29.78 "Hg2 mi
9:00 PM50 °FCool.5 mph99%29.79 "Hg1 mi
Weather by CustomWeather, © 2014

See weather overviewHow to use our weather pages